カタログに戻る

UTMN-2

運用中アマチュア無線SSO
NORAD 57203·PAYLOAD·🇷🇺 Russia
この衛星名は、まだ公式ソースで確認されていません。

打ち上げ Jun 27, 2023 から Vostochny Cosmodrome

Loading…

次のパス (今後24時間)

TLE

最新Source: Space-Track

元期: Sep 14, 2026, 14:43 UTC

1 57203U 23091AP  26257.61378649  .00011012  00000-0  33687-3 0  9993
2 57203  97.4999 326.1598 0008830 117.9838 242.2299 15.33986269178240

AllMySatでUTMN-2をリアルタイム追跡

Download on the App Store